User: anonymous   Login
Location: Unspecified
(0.0000°N, 0.0000°E)
Time: 19:18:42
(UTC+00:00)
Language:

NNS O-25 - Orbit

View from above orbital plane
View from above orbital plane
View from above satellite
View from above satellite

Ground track
Ground track

The orbit data is extracted from the following two-line orbital elements,

1 19419U 88074A   17141.76827674 +.00000042 +00000-0 +55494-4 0  9999
2 19419 089.9859 019.0205 0096835 162.4106 240.5581 13.42164108406917
Epoch (UTC): 21 May 2017 18:26:19
Eccentricity: 0.0096835
inclination: 89.9859°
perigee height: 1029 km
apogee height: 1173 km
right ascension of ascending node: 19.0205°
argument of perigee: 162.4106°
revolutions per day: 13.42164108
mean anomaly at epoch: 240.5581°
orbit number at epoch: 40691

The dashed part of the orbit path shows where the satellite is in the earth's shadow,  

DLR